Find Starlink 30822

NORAD ID: 58193 Int'l Des: 2023-167 Owner: SPXS Country: US Constellation: starlink operational
LEOCIRCULAR

Current View

Loading 3D Globe...

About Starlink 30822

Starlink 30822 (NORAD 58193) is a starlink constellation satellite (v2 mini) launched Oct 30, 2023 by SPXS of US. It operates in LEO, CIRCULAR orbit with a mass of 730.00 kg.

About Starlink 30822

Description loading...

Upcoming Passes

Passes for default location (London). Set your location on the main map for personalized predictions.

Altitude History

Loading altitude history...

Two-Line Element Set

1 58193U 23167U 26169.39585102 .00001760 00000-0 73447-4 0 9995
2 58193 42.9973 294.9282 0000730 242.0333 118.0445 15.27578264146387
Epoch: Jun 18, 2026 • Age: 22 hours

Current Status

Altitude 485.5 km
Velocity 7.63 km/s
Sub-Earth Point 37.67°N, 38.62°W
Launch Date Oct 30, 2023
Age 2.6 years
Type internet

Technical Details

Classification Payload
Mass 730.00 kg
Dry Mass 700.00 kg
Total Mass 730.00 kg
Length 0.30 m
Diameter 4.10 m
Span 29.00 m
Shape Box + pan
Manufacturer SPXS
Bus Type Starlink V2M
Phase Status In Orbit
Owner/State SPXS/US

Most Searched